DW6376 Weather Reports


Display with metric or nautical units.
time (UTC)temp
F
wind
direction
speed
MPH
gust
MPH
rain 1hr
in
rain 24hr
in
rain mn
in
humidity
%
barometer
mb
20260510174557 65 38 0.0 0.0 0.00 0.00 0.00 26 1022.3
20260510173051 65 31 0.0 0.0 0.00 0.00 0.00 26 1022.4
20260510171603 64 30 0.0 0.0 0.00 0.00 0.00 27 1022.4
20260510170047 63 13 0.0 0.0 0.00 0.00 0.00 31 1022.3
20260510164541 62 13 0.0 0.0 0.00 0.00 0.00 30 1022.2
20260510163039 61 13 0.0 0.0 0.00 0.00 0.00 30 1022.1
20260510161525 60 355 0.0 0.0 0.00 0.00 0.00 32 1022.1
20260510160023 58 355 0.0 0.0 0.00 0.00 0.00 36 1022.1
20260510154522 57 355 0.0 0.0 0.00 0.00 0.00 35 1022.2
20260510153018 55 355 0.0 0.0 0.00 0.00 0.00 36 1022.2
20260510151510 53 355 0.0 0.0 0.00 0.00 0.00 42 1022.1
20260510150007 52 355 0.0 0.0 0.00 0.00 0.00 48 1022.2
20260510144503 50 355 0.0 0.0 0.00 0.00 0.00 52 1022.2
20260510143002 49 355 0.0 0.0 0.00 0.00 0.00 54 1021.9
20260510141549 47 355 0.0 0.0 0.00 0.00 0.00 55 1021.8
20260510140048 46 355 0.0 0.0 0.00 0.00 0.00 55 1021.8
20260510134603 46 355 0.0 0.0 0.00 0.00 0.00 56 1021.7
20260510133044 46 355 0.0 0.0 0.00 0.00 0.00 52 1021.5
20260510131541 46 355 0.0 0.0 0.00 0.00 0.00 51 1021.2
20260510130040 46 355 0.0 0.0 0.00 0.00 0.00 50 1021.0
20260510124543 47 355 0.0 0.0 0.00 0.00 0.00 47 1020.8
20260510123037 46 355 0.0 0.0 0.00 0.00 0.00 44 1020.6
20260510121527 45 360 0.0 0.0 0.00 0.00 0.00 47 1020.4
20260510120034 45 360 0.0 0.0 0.00 0.00 0.00 48 1020.3
20260510114521 44 360 0.0 0.0 0.00 0.00 0.00 50 1020.1
20260510113020 45 360 0.0 0.0 0.00 0.00 0.00 53 1019.9
20260510111517 45 360 0.0 0.0 0.00 0.00 0.00 54 1019.7
20260510110020 46 360 0.0 0.0 0.00 0.00 0.00 50 1019.7
20260510104514 46 360 0.0 0.0 0.00 0.00 0.00 50 1019.6
20260510103013 47 360 0.0 0.0 0.00 0.00 0.00 45 1019.6
20260510101513 47 360 0.0 0.0 0.00 0.00 0.00 49 1019.5
20260510100059 46 360 0.0 0.0 0.00 0.00 0.00 43 1019.5
20260510094552 46 360 0.0 0.0 0.00 0.00 0.00 52 1019.4
20260510093036 46 360 0.0 0.0 0.00 0.00 0.00 48 1019.3
20260510091534 47 360 0.0 0.0 0.00 0.00 0.00 46 1019.2
20260510090032 47 360 0.0 0.0 0.00 0.00 0.00 48 1019.0
20260510084529 47 360 0.0 0.0 0.00 0.00 0.00 49 1018.9
20260510083027 48 360 0.0 0.0 0.00 0.00 0.00 46 1018.7
20260510080023 49 360 0.0 0.0 0.00 0.00 0.00 43 1018.5
20260510074521 50 360 0.0 0.0 0.00 0.00 0.00 45 1018.5
20260510073018 50 360 0.0 0.0 0.00 0.00 0.00 48 1018.4
20260510070016 51 360 0.0 0.0 0.00 0.00 0.00 38 1018.1
20260510064513 51 360 0.0 0.0 0.00 0.00 0.00 36 1017.9
20260510063013 52 360 0.0 0.0 0.00 0.00 0.00 36 1017.6
20260510060059 52 360 0.0 0.0 0.00 0.00 0.00 35 1017.2
20260510054558 53 360 0.0 0.0 0.00 0.00 0.00 35 1017.1
20260510053058 53 360 0.0 0.0 0.00 0.00 0.00 33 1017.0
20260510051633 54 360 0.0 0.0 0.00 0.00 0.00 32 1016.9
20260510050051 55 360 0.0 0.0 0.00 0.00 0.00 30 1017.0
20260510044553 55 360 0.0 0.0 0.00 0.00 0.00 29 1016.8
20260510043132 56 360 0.0 0.0 0.00 0.00 0.00 31 1016.7
20260510041553 57 360 0.0 0.0 0.00 0.00 0.00 26 1016.7
20260510040036 58 360 0.0 0.0 0.00 0.00 0.00 28 1016.6
20260510034539 59 360 0.0 0.0 0.00 0.00 0.00 24 1016.5
20260510033036 60 360 0.0 0.0 0.00 0.00 0.00 23 1016.2
20260510031600 61 360 0.0 0.0 0.00 0.00 0.00 20 1015.9
20260510030037 63 360 0.0 0.0 0.00 0.00 0.00 20 1015.6
20260510024537 65 360 0.0 0.0 0.00 0.00 0.00 19 1015.4
20260510023043 67 360 0.0 0.0 0.00 0.00 0.00 15 1015.3
20260510021532 68 22 0.0 0.0 0.00 0.00 0.00 14 1015.1
20260510020018 69 13 0.0 0.0 0.00 0.00 0.00 15 1015.1
20260510014520 70 35 0.0 0.0 0.00 0.00 0.00 12 1015.0
20260510013018 71 314 0.0 0.0 0.00 0.00 0.00 14 1015.1
20260510011523 71 312 0.0 0.0 0.00 0.00 0.00 12 1015.2
20260510010023 71 308 0.0 0.0 0.00 0.00 0.00 13 1015.1
20260510004516 72 355 1.0 0.0 0.00 0.00 0.00 14 1015.1
20260510003016 72 281 0.0 0.0 0.00 0.00 0.00 13 1015.2
20260510001517 72 321 0.0 0.0 0.00 0.00 0.00 14 1015.3
20260510000004 72 351 1.0 0.0 0.00 0.00 0.00 14 1015.2
20260509234503 72 51 2.0 0.0 0.00 0.00 0.00 14 1015.1
20260509233004 74 32 0.0 0.0 0.00 0.00 0.00 14 1015.1
20260509231501 74 141 1.0 0.0 0.00 0.00 0.00 13 1015.2
20260509230100 73 355 1.0 0.0 0.00 0.00 0.00 13 1015.2
20260509224616 73 57 1.0 0.0 0.00 0.00 0.00 15 1015.0
20260509223059 73 70 2.0 0.0 0.00 0.00 0.00 16 1015.0
20260509221558 73 26 2.0 0.0 0.00 0.00 0.00 18 1015.0
20260509220047 73 291 1.0 0.0 0.00 0.00 0.00 17 1015.1
20260509214543 73 332 1.0 0.0 0.00 0.00 0.00 17 1015.4
20260509213057 72 337 0.0 0.0 0.00 0.00 0.00 17 1015.5
20260509211606 72 355 1.0 0.0 0.00 0.00 0.00 18 1015.5
20260509210040 72 38 1.0 0.0 0.00 0.00 0.00 21 1015.5
20260509204551 71 333 2.0 0.0 0.00 0.00 0.00 17 1015.7
20260509203042 71 34 1.0 0.0 0.00 0.00 0.00 18 1015.7
20260509201535 70 78 2.0 0.0 0.00 0.00 0.00 18 1015.7
20260509200023 70 53 2.0 0.0 0.00 0.00 0.00 19 1015.7
20260509194518 69 344 2.0 0.0 0.00 0.00 0.00 20 1015.9
20260509193016 68 5 3.0 0.0 0.00 0.00 0.00 18 1016.0
20260509191513 67 26 2.0 0.0 0.00 0.00 0.00 19 1016.1
20260509190016 67 5 3.0 0.0 0.00 0.00 0.00 16 1016.2
20260509184511 67 336 3.0 0.0 0.00 0.00 0.00 16 1016.3
20260509183018 67 56 3.0 0.0 0.00 0.00 0.00 18 1016.3
20260509181509 66 30 3.0 0.0 0.00 0.00 0.00 19 1016.3
20260509180050 65 65 4.0 0.0 0.00 0.00 0.00 18 1016.2